Regional Weather Roundup
Issued by NWS

Home | Current Version | Previous Version | Graphics & Text | Print | Product List | Glossary On
Versions: 1 2 3 4 5 6 7 8 9 10 11 12 13 14 15 16 17 18 19 20 21 22 23 24 25 26 27 28 29 30 31 32 33 34 35 36 37 38 39 40 41 42 43 44 45 46 47 48 49 50
000
ASUS43 KTOP 222008
RWRKS

WEATHER ROUNDUP FOR KANSAS
NATIONAL WEATHER SERVICE GOODLAND KS
300 PM CDT SAT APR 22 2017

NOTE:  "FAIR" INDICATES FEW OR NO CLOUDS BELOW 12,000 FEET WITH NO
SIGNIFICANT WEATHER AND/OR OBSTRUCTIONS TO VISIBILITY.

KSZ001>006-013>018-027>032-041>047-222100-
NORTHWEST KANSAS

CITY           SKY/WX    TMP DP  RH WIND       PRES   REMARKS
GOODLAND       PTSUNNY   53  32  44 N6        30.28F
HAYS           CLOUDY    57  35  43 N12G18    30.25F
HILL CITY      PTSUNNY   60  32  34 N9        30.27F
RUSSELL        PTSUNNY   60  35  39 N14       30.22F
$$

KSZ061>065-074>080-084>089-222100-
SOUTHWEST KANSAS

CITY           SKY/WX    TMP DP  RH WIND       PRES   REMARKS
DODGE CITY     PTSUNNY   58  36  43 NE16      30.25F
GARDEN CITY    PTSUNNY   55  32  41 N14G22    30.26F
GREAT BEND     PTSUNNY   57  37  47 N10       30.24F
LIBERAL        PTSUNNY   57  32  38 NE14G22   30.27S
PRATT          PTSUNNY   54  32  43 NE15G23   30.23S
$$

KSZ066>073-081>083-090>101-222100-
SOUTHEAST KANSAS

CITY           SKY/WX    TMP DP  RH WIND       PRES   REMARKS
CHANUTE        CLOUDY    57  38  48 N12       30.11F
COFFEYVILLE    CLOUDY    56  39  53 N20G29    30.11F
HUTCHINSON     CLOUDY    59  36  42 N9G22     30.20F
MEDICINE LODGE   N/A     55  33  43 NE18      30.21S
NEWTON         CLOUDY    57  41  55 N17G28    30.18F
PARSONS        CLOUDY    57  38  48 N12G25    30.12F
WICHITA INTL   CLOUDY    59  39  47 N16G26    30.17F
WICHITA JABRA  CLOUDY    58  39  49 N15G25    30.16F
WICHITA MCCONL CLOUDY    58  38  46 N20G25    30.16F
WINFIELD       CLOUDY    56  39  53 N18G24    30.17F
$$

KSZ007>012-019>026-033>040-048>060-102>105-222100-
NORTHEAST KANSAS

CITY           SKY/WX    TMP DP  RH WIND       PRES   REMARKS
CONCORDIA      PTSUNNY   61  36  39 NE12G21   30.21F
EMPORIA        CLOUDY    61  38  42 N15G23    30.14F
LAWRENCE       SUNNY     67  36  31 N14G25    30.12F
MANHATTAN      MOSUNNY   65  37  35 N15G23    30.18F
MARYSVILLE     MOSUNNY   64  34  32 NE14G23   30.20F
OLATHE IND     SUNNY     64  32  30 N23G31    30.11F
OLATHE EXE     SUNNY     64  29  26 NE21G28   30.10F
SALINA         CLOUDY    64  36  35 N14G23    30.20F
TOPEKA BILLARD SUNNY     66  38  35 N14G24    30.13F
TOPEKA FORBES  SUNNY     67  35  30 NE12G28   30.13F
$$




USA.gov is the U.S. government's official web portal to all federal, state and local government web resources and services.